Погода в Ишимове

Россия / Пермский край     56°39′45″N   56°48′00″E
темп.,
°C
ветер,
м/с
пор.,
м/с
влажн.,
%
обл.,
%
осадки,
мм/ч
давл.,
гПа
погр.,
м
9 мая, вс
вс923:00+11ссв1186100 0.9 101710
02:00+11юз1185100 0.1 101612
05:00+10з0087100 0.1 101710
08:00+13ссз117299 0.0 1017126
11:00+19ссв12525 0.0 1017681
14:00+22ссв233660 0.0 10162592
17:00+21св123518 0.0 10161022
20:00+17юв255639 0.0 1017154
10 мая, пн
пн1023:00+13юв22682 0.0 101814
02:00+12юв22675 0.0 101917
05:00+11ююв22695 0.0 102111
08:00+15юв24572 0.0 1021177
11:00+20юв45410 0.0 10221267
14:00+22вюв44325 0.0 10222508
17:00+23юв233054 0.0 10222588
20:00+19ююв1146100 0.0 102313
11 мая, вт
вт1123:00+15юв225384 0.0 102417
02:00+12ю2360100 0.0 102545
05:00+11ю2259100 0.0 102628
08:00+14ю2353100 0.0 1027139
11:00+19ююз2240100 0.0 1028477
14:00+22зюз123565 0.0 10281387
17:00+23зюз233696 0.0 10271934
20:00+18ссз3664100 0.0 1028188
12 мая, ср
ср1223:00+16св25745 0.0 1029130
02:00+13ссв258828 0.0 1030108
05:00+11ссв24906 0.0 103170
08:00+15ссв3474100 0.0 1032335
11:00+18ссв33485 0.0 1031814
14:00+21с32335 0.0 10311261
17:00+21ссв3337100 0.0 10301350
20:00+19ссв125537 0.0 103014
13 мая, чт
чт1323:00+15св1161100 0.0 103011
02:00+13ссв116618 0.0 103110
05:00+12ссв11715 0.0 103110
08:00+16ссв12585 0.0 1031163
11:00+22ссв22445 0.0 1030830
14:00+24ссв223833 0.0 10291393
17:00+24ссв223780 0.0 10281417
20:00+21всв115220 0.0 102811